Location: Christianberg
(48.9086°N, 14.0209°E)
Time: 22:39:41
(UTC+00:00)

NOSS 2-2 (E) - Pass Details

Date: 20 June 2021
Orbit: 448 x 1757 km, 63.3° (Epoch: 02 August)

Event Time Altitude Azimuth Distance (km) Brightness Sun altitude
Exits shadow 00:20:31 22° 147° (SSE) 1,037 4.4 -15.7°
Maximum altitude 00:21:29 25° 119° (ESE) 957 4.4 -15.7°
Drops below altitude 10° 00:24:32 10° 62° (ENE) 1,697 6.5 -15.5°
Sets 00:27:05 0° 49° (NE) 2,706 7.9 -15.4°
